User: anonymous   Login
Location: Fisheating Creek Campgrounds
(26.9333°N, 81.3167°W)
Time: 12:03:03
(UTC-04:00)
Language:

NATO 3D Rocket - Orbit

View from above orbital plane
View from above orbital plane
View from above satellite
View from above satellite

Ground track
Ground track

The orbit data is extracted from the following two-line orbital elements,

1 15392U 84115B   16151.52875410  .00000169  00000-0  94836-5 0  9996
2 15392  21.4909 259.6823 1034399 137.2590 231.3074 12.45528210436270
Epoch (UTC): 30 May 2016 12:41:24
Eccentricity: 0.1034399
inclination: 21.4909°
perigee height: 670 km
apogee height: 2296 km
right ascension of ascending node: 259.6823°
argument of perigee: 137.2590°
revolutions per day: 12.45528210
mean anomaly at epoch: 231.3074°
orbit number at epoch: 43627

The dashed part of the orbit path shows where the satellite is in the earth's shadow,  

DLR